Regional Weather Roundup
Issued by NWS

Home | Current Version | Previous Version | Text Only | Print | Product List | Glossary Off
Versions: 1 2 3 4 5 6 7 8 9 10 11 12 13 14 15 16 17 18 19 20 21 22 23 24 25 26 27 28 29 30 31 32 33 34 35 36 37 38 39 40 41 42 43 44 45 46 47 48 49 50

000
ASUS45 KCYS 241110
RWRWY

WYOMING REGIONAL WEATHER ROUNDUP
NATIONAL WEATHER SERVICE CHEYENNE WY
500 AM MDT WED AUG 24 2016

NOTE:  "FAIR" INDICATES FEW OR NO CLOUDS BELOW 12,000 FEET
WITH NO SIGNIFICANT WEATHER AND/OR OBSTRUCTIONS TO VISIBILITY.

WYZ001-241200-
YELLOWSTONE NATIONAL PARK

CITY           SKY/WX    TMP DP  RH WIND       PRES   REMARKS
LK YELLOWSTONE   N/A     34  24  67 CALM      30.34S
W YELLOWSTONE  NOT AVBL

$$
WYZ002>013-054>058-071-098>099-241200-
NORTHERN WYOMING

CITY           SKY/WX    TMP DP  RH WIND       PRES   REMARKS
JACKSON        MOCLDY    36  25  64 N3        30.26R
CODY           FAIR      50  37  62 NW7       30.27S
GREYBULL       FAIR      56  40  55 W18       30.17R
WORLAND        FAIR      51  39  63 S6        30.22R
SHERIDAN       FAIR      47  41  80 SW3       30.24R
BUFFALO        FAIR      52  40  63 N8        30.26R
GILLETTE       FAIR      49  41  74 NW10      30.22R
HULETT         FAIR      54  41  62 CALM      30.22R
NEWCASTLE      FAIR      52  34  50 NW7       30.18R

$$
WYZ014>020-022>026-101>103-241200-
CENTRAL WYOMING

CITY           SKY/WX    TMP DP  RH WIND       PRES   REMARKS
BIG PINEY      FAIR      31  14  49 N6        30.28R WCI  25
PINEDALE       FAIR      32  21  64 CALM      30.28R
DUBOIS         FAIR      37  18  44 NW5       30.29S WCI  34
LANDER         FAIR      52  25  35 CALM      30.24R
RIVERTON       FAIR      52  31  44 N6        30.25R
CASPER         FAIR      51  34  52 NE15      30.22S
DOUGLAS        FAIR      48  31  51 CALM      30.22R

$$
WYZ021-027>030-104>119-241200-
SOUTHERN WYOMING

CITY           SKY/WX    TMP DP  RH WIND       PRES   REMARKS
EVANSTON       FAIR      51  21  30 S5        30.26S
FORT BRIDGER   FAIR      53  17  23 W7        30.27F
ROCK SPRINGS   FAIR      48  21  34 E7        30.25S
DIXON          FAIR      49  38  66 CALM      30.26S
RAWLINS        FAIR      49  23  36 CALM      30.26S
SARATOGA       FAIR      46  34  61 W6        30.26S
LARAMIE        MOCLDY    55  38  52 S6        30.24F
CHEYENNE       CLOUDY    58  41  53 CALM      30.19R
TORRINGTON     FAIR      60  33  36 NE10      30.14R
PINE BLUFFS    CLOUDY    63  37  39 S7        30.16R

$$



USA.gov is the U.S. government's official web portal to all federal, state and local government web resources and services.